Location: Olda
(45.8833°N, 9.5500°E)
Time: 07:55:52
(UTC+00:00)

Cosmos 2333 Rocket - Pass Details

Date: 03 March 2021
Orbit: 837 x 864 km, 70.8° (Epoch: 11 April)

Event Time Altitude Azimuth Distance (km) Brightness Sun altitude
Rises 20:31:10 0° 235° (SW) 3,395 5.6 -34.4°
Reaches altitude 10° 20:33:51 10° 246° (WSW) 2,468 4.9 -34.8°
Maximum altitude 20:38:54 32° 309° (NW) 1,422 3.8 -35.5°
Drops below altitude 10° 20:44:01 10° 12° (NNE) 2,497 4.8 -36.3°
Sets 20:46:46 0° 22° (NNE) 3,441 5.5 -36.7°
